Wind_Speed
2 2 2 2 2 3 3 4 3 3 4 4 4 4 4 5 6 7 7 8 8 8 8 8 9 9 9 9 10 10 10 11 10 11 10 10 11 11 11 11 11 11 11
2 2 2 1 2 2 3 3 2 2 3 3 3 3 3 3 4 5 5 6 7 7 8 8 8 9 9 9 8 8 9 10 10 10 10 11 11 11 11 11 11 11 12
3 2 2 2 1 2 3 2 2 2 2 2 2 1 2 2 3 3 4 4 6 7 7 7 7 8 7 7 7 8 8 8 9 9 10 10 10 10 11 11 11 11 11
2 1 1 2 2 2 2 2 1 1 1 2 1 1 1 2 3 3 3 3 4 5 5 6 7 6 6 6 7 7 8 8 8 8 9 10 10 10 11 11 11 11 11
1 1 1 1 2 3 3 2 2 1 1 1 1 1 1 1 2 2 3 3 3 4 4 4 5 5 6 6 7 7 8 8 8 8 9 9 10 10 10 10 11 11 11
1 1 1 1 2 3 3 2 2 1 1 1 1 1 1 1 1 2 2 2 3 3 4 4 5 4 4 5 6 6 6 7 8 8 8 9 10 10 10 10 10 11 11
0 0 1 1 2 3 3 2 2 2 1 1 1 1 1 2 1 1 1 1 2 2 3 4 4 4 4 5 6 6 7 7 7 7 8 8 9 9 10 10 10 11 11
0 0 1 2 2 2 2 2 2 2 2 1 1 1 1 1 1 1 1 1 2 3 3 4 5 5 5 5 6 6 7 7 7 7 7 8 9 9 10 10 10 11 11
0 1 1 2 2 2 2 2 1 2 2 2 1 1 1 1 2 2 2 2 3 3 4 5 5 6 6 6 6 6 6 6 6 7 7 8 9 9 10 10 11 11 11
0 1 1 1 2 2 2 2 1 2 2 2 1 1 1 1 2 2 3 3 4 4 5 5 5 6 6 6 7 7 7 6 6 7 7 7 8 9 9 10 10 11 11
1 1 1 2 2 2 2 2 2 1 1 1 2 2 2 2 2 3 3 4 4 5 5 5 6 6 6 6 7 7 7 7 7 7 7 7 7 8 9 9 10 10 10
1 2 1 2 2 2 2 2 2 1 1 1 2 2 2 3 3 4 4 5 5 5 6 6 6 6 7 7 7 7 7 7 7 6 7 7 8 8 8 9 9 10 11
2 2 2 2 1 2 2 2 2 1 1 1 1 1 2 2 3 3 4 4 4 5 5 5 6 7 7 7 7 7 6 6 6 7 7 8 8 8 9 9 10 10 11
2 2 2 2 2 2 2 2 1 1 1 1 1 1 1 2 2 3 3 3 4 4 5 5 5 6 6 6 6 6 6 6 7 8 8 8 9 9 10 10 10 11 11
3 2 2 2 2 2 2 2 2 1 1 1 1 1 2 2 3 3 3 4 5 5 5 6 6 5 5 5 6 6 7 8 8 8 9 9 9 9 9 10 10 11 11
4 4 3 3 3 2 2 2 2 2 2 2 2 3 3 2 3 3 4 5 6 6 6 7 6 5 6 6 7 7 8 8 9 9 9 10 10 10 10 11 12 13 14
5 5 4 4 3 3 3 2 2 2 3 3 3 3 4 4 4 5 5 5 6 6 7 7 6 7 7 8 8 9 9 10 10 10 11 11 11 11 12 12 13 14 14
6 6 5 5 4 4 4 4 4 4 4 4 4 4 5 5 5 6 6 6 6 6 7 7 8 8 8 9 9 10 11 11 12 12 11 12 12 13 13 14 15 15 16
7 7 7 6 6 6 5 5 5 5 5 5 5 5 5 6 6 6 7 7 7 8 9 9 9 9 10 10 10 11 11 12 12 12 12 13 13 14 15 16 16 17 18
8 8 8 8 8 8 7 7 7 7 6 6 6 6 6 6 6 7 8 9 9 9 9 10 10 10 11 12 12 12 12 13 13 14 14 15 15 16 17 17 17 18 19
9 9 9 9 8 8 8 8 8 8 7 7 7 7 8 8 9 9 10 10 10 10 11 11 12 12 13 13 13 13 13 14 15 16 16 16 17 18 18 19 19 19 20
11 10 10 10 10 9 8 8 9 9 9 9 10 10 10 10 11 11 11 11 12 12 13 13 14 14 14 14 14 15 15 15 16 16 17 18 19 19 20 20 21 22 23
13 12 10 10 10 10 9 10 10 10 11 11 11 11 11 12 12 13 13 13 13 13 14 14 15 15 15 16 16 16 17 17 18 18 19 20 21 22 23 23 24 25 26
14 13 12 11 11 11 11 11 12 12 12 12 12 13 13 13 13 13 13 14 14 15 15 15 16 16 16 16 17 17 18 19 20 21 21 22 23 24 25 26 26 27 28
16 15 14 13 13 13 12 12 13 13 13 13 13 13 13 14 14 14 14 15 15 16 16 17 17 18 18 18 18 19 20 21 22 23 23 24 25 26 27 28 29 29 30
15 15 15 15 14 14 14 13 13 14 13 13 14 14 14 15 16 16 16 16 17 18 18 19 19 20 20 20 21 21 22 23 24 24 25 26 27 27 27 29 30 31 32
Wind_Direction
293 295 283 257 247 243 234 223 220 210 221 221 223 224 234 237 230 232 235 235 239 242 244 245 246 249 253 255 257 259 263 264 266 264 260 256 257 260 262 266 270 274 278
299 291 275 266 246 235 229 218 214 199 201 204 197 209 225 227 225 228 230 237 238 240 245 248 248 249 251 255 260 263 265 267 266 262 259 259 258 260 262 266 270 275 278
305 284 261 236 228 205 206 202 216 197 197 190 170 190 218 229 225 217 224 231 236 241 247 246 249 254 255 257 261 264 266 269 265 261 259 258 258 259 262 267 272 275 279
314 296 245 219 208 183 189 188 195 179 172 191 186 216 215 216 223 226 228 230 233 241 245 246 251 257 254 256 261 262 264 267 264 260 258 258 257 259 262 266 271 273 276
306 294 238 217 191 176 167 158 157 155 160 187 205 238 250 213 230 241 243 234 233 231 240 247 254 263 260 258 259 261 264 265 263 260 259 260 259 261 264 268 272 274 277
313 268 230 204 180 171 166 170 164 163 161 196 206 224 259 233 239 244 244 230 226 220 228 240 249 262 261 260 258 261 265 266 265 263 260 260 260 262 266 271 274 277 279
344 190 165 166 165 174 173 179 172 169 166 174 198 210 223 222 236 243 269 246 223 224 235 253 261 268 271 275 266 265 266 265 268 268 263 260 263 265 267 272 273 276 278
7 138 141 170 173 166 163 160 164 177 185 180 183 203 213 216 222 258 280 277 256 249 263 272 274 277 282 282 280 277 272 270 270 268 264 264 269 272 274 273 274 277 280
132 160 161 176 169 164 164 154 150 173 176 173 184 196 210 221 237 258 271 278 267 266 272 280 284 280 280 279 282 286 284 278 280 274 271 271 271 272 275 278 279 279 281
205 174 166 171 173 173 171 168 147 142 166 186 207 235 269 268 241 254 272 272 273 278 281 284 285 287 285 283 285 288 290 285 285 285 280 278 279 275 277 280 281 282 282
220 189 169 173 172 177 181 179 172 172 188 208 240 261 273 283 277 285 291 283 282 282 284 287 289 291 288 287 291 295 295 289 286 283 282 284 287 285 282 283 284 285 285
206 183 159 156 173 190 193 191 189 210 230 238 252 257 267 280 284 288 290 292 292 288 286 285 289 289 290 291 292 295 295 290 287 285 285 288 288 290 292 291 289 287 288
210 199 190 176 177 184 187 182 186 198 210 258 261 263 275 285 291 295 296 297 296 298 297 294 293 294 294 294 297 296 295 295 295 293 291 291 291 291 293 296 296 296 296
215 210 201 196 190 171 167 166 186 207 223 255 246 265 271 289 299 305 307 305 299 297 301 305 304 305 303 305 303 297 297 297 298 296 293 291 292 291 293 296 297 297 297
213 210 212 209 197 193 170 183 211 236 258 250 258 275 278 289 291 300 302 304 304 301 303 306 306 306 302 304 306 303 301 302 300 297 295 294 294 294 297 298 297 297 297
222 222 226 221 218 215 218 240 229 256 282 268 264 271 277 282 285 293 298 298 301 298 298 303 301 300 303 300 301 302 301 300 300 297 296 296 294 294 294 297 297 297 297
231 234 232 236 234 222 232 242 246 262 267 262 266 274 278 279 285 291 294 299 302 299 297 300 299 300 300 300 298 298 298 298 299 297 297 295 293 293 295 297 297 297 298
235 236 236 238 239 236 237 247 259 266 265 262 270 277 281 280 281 286 292 302 303 304 306 302 296 297 299 299 296 297 297 298 299 297 295 293 292 293 296 298 299 299 300
237 237 237 239 244 246 248 254 260 265 265 265 270 277 279 281 279 283 289 295 300 304 306 300 300 295 296 297 295 295 294 297 297 296 294 292 291 293 295 296 297 298 299
239 241 242 245 251 250 249 255 257 260 262 265 269 272 275 280 281 286 291 293 294 296 300 300 301 300 297 296 295 297 295 294 295 293 292 292 293 295 296 296 296 297 298
240 245 247 248 252 253 252 256 257 260 262 264 268 274 277 280 282 286 290 291 291 293 296 299 299 298 297 297 294 294 296 296 293 296 294 296 295 295 295 295 296 297 298
238 244 247 250 249 249 253 254 257 260 264 265 268 273 276 278 282 285 288 288 290 293 297 297 298 297 296 296 295 293 295 297 297 298 298 299 299 297 299 296 298 299 300
239 242 247 247 244 249 255 257 261 264 265 266 268 272 275 278 282 284 286 287 289 292 295 297 297 298 296 296 296 295 295 295 295 297 298 299 299 298 298 298 298 299 299
243 246 249 248 246 251 257 260 263 265 265 266 269 273 276 279 283 285 285 286 288 290 294 296 297 297 297 296 297 298 297 297 297 297 296 297 298 298 297 296 297 298 299
243 245 247 247 249 253 258 262 264 264 265 267 271 274 277 280 283 286 287 288 290 292 295 296 296 296 295 295 296 296 296 296 297 298 298 298 298 298 297 297 297 298 299
243 245 248 249 251 255 259 264 266 265 267 269 270 274 278 283 285 286 287 288 291 293 294 294 294 295 294 294 295 296 296 296 296 297 298 298 298 298 297 298 298 298 299
Height
5862 5862 5861 5861 5860 5860 5860 5860 5860 5860 5860 5860 5860 5861 5861 5861 5862 5862 5863 5863 5863 5864 5864 5865 5865 5866 5866 5867 5867 5867 5867 5867 5867 5867 5867 5866 5867 5868 5868 5868 5868 5868 5868
5861 5861 5860 5860 5859 5859 5859 5859 5859 5859 5859 5859 5860 5860 5860 5860 5860 5861 5861 5861 5862 5862 5863 5863 5864 5864 5864 5865 5865 5865 5865 5865 5865 5865 5865 5865 5866 5866 5866 5866 5866 5866 5865
5860 5860 5859 5859 5859 5859 5859 5859 5859 5859 5859 5859 5860 5860 5860 5859 5859 5860 5860 5860 5860 5861 5861 5862 5862 5862 5862 5862 5863 5863 5863 5863 5863 5863 5863 5863 5863 5864 5864 5864 5864 5863 5863
5860 5859 5859 5858 5858 5858 5858 5858 5859 5859 5859 5859 5859 5859 5859 5859 5859 5859 5859 5859 5859 5860 5860 5860 5860 5860 5860 5860 5861 5861 5861 5861 5861 5861 5861 5861 5861 5861 5861 5861 5861 5861 5860
5859 5858 5858 5858 5858 5858 5858 5858 5858 5859 5859 5859 5859 5859 5859 5859 5859 5858 5858 5858 5859 5859 5859 5859 5859 5859 5859 5859 5859 5859 5859 5859 5859 5859 5859 5859 5859 5859 5859 5859 5859 5858 5858
5858 5858 5857 5857 5857 5857 5858 5858 5858 5858 5859 5859 5859 5859 5858 5858 5858 5858 5858 5858 5858 5858 5858 5858 5858 5858 5857 5857 5857 5857 5857 5857 5856 5856 5856 5856 5857 5857 5857 5856 5856 5856 5855
5857 5857 5857 5857 5857 5857 5857 5857 5858 5858 5858 5858 5858 5858 5858 5858 5858 5858 5858 5858 5857 5857 5857 5857 5857 5857 5856 5856 5855 5855 5855 5855 5855 5854 5854 5854 5854 5854 5854 5853 5853 5853 5852
5857 5857 5857 5857 5857 5857 5857 5857 5857 5857 5858 5858 5858 5858 5858 5859 5858 5858 5858 5857 5857 5857 5857 5856 5856 5856 5855 5855 5854 5854 5853 5853 5853 5852 5852 5852 5851 5851 5851 5850 5850 5850 5849
5857 5856 5857 5857 5857 5857 5857 5857 5857 5857 5857 5858 5858 5858 5858 5858 5858 5857 5857 5857 5857 5856 5856 5855 5855 5855 5854 5854 5853 5852 5852 5851 5851 5850 5850 5849 5849 5848 5848 5848 5847 5847 5846
5856 5856 5856 5856 5856 5857 5857 5857 5857 5857 5857 5857 5857 5858 5858 5857 5857 5857 5857 5856 5856 5856 5855 5855 5854 5853 5853 5852 5851 5851 5850 5849 5849 5848 5848 5847 5846 5846 5845 5845 5844 5844 5843
5856 5856 5856 5856 5856 5856 5857 5857 5857 5857 5857 5857 5857 5857 5857 5857 5857 5857 5856 5856 5855 5855 5854 5853 5853 5852 5852 5851 5850 5849 5848 5848 5847 5846 5846 5845 5844 5844 5843 5842 5842 5841 5840
5856 5855 5855 5855 5855 5856 5856 5856 5856 5856 5856 5856 5856 5856 5856 5856 5856 5856 5855 5855 5854 5854 5853 5852 5852 5851 5850 5849 5849 5848 5847 5846 5845 5845 5844 5844 5843 5842 5841 5841 5840 5839 5838
5855 5855 5855 5855 5855 5855 5855 5856 5856 5856 5856 5856 5856 5856 5855 5855 5855 5855 5854 5853 5853 5852 5852 5851 5850 5849 5849 5848 5847 5846 5845 5844 5844 5843 5843 5842 5841 5840 5839 5838 5837 5836 5835
5855 5854 5854 5854 5855 5855 5855 5855 5855 5855 5855 5855 5855 5855 5855 5854 5854 5854 5853 5853 5852 5851 5850 5850 5849 5848 5847 5846 5845 5845 5844 5843 5842 5841 5841 5840 5839 5838 5837 5836 5835 5834 5832
5854 5854 5854 5854 5854 5854 5854 5854 5855 5855 5855 5854 5854 5854 5854 5854 5853 5853 5853 5852 5852 5850 5850 5849 5848 5847 5846 5845 5844 5843 5842 5841 5840 5840 5839 5838 5837 5836 5834 5833 5832 5831 5829
5853 5853 5853 5853 5853 5854 5854 5854 5854 5854 5854 5854 5853 5853 5853 5853 5853 5852 5852 5851 5850 5850 5848 5847 5846 5845 5845 5844 5842 5842 5841 5840 5839 5837 5837 5835 5834 5833 5832 5831 5829 5828 5826
5852 5852 5852 5852 5852 5852 5853 5853 5853 5853 5853 5853 5853 5852 5852 5852 5852 5851 5851 5850 5849 5848 5847 5846 5845 5844 5843 5842 5841 5840 5839 5838 5836 5835 5834 5833 5832 5830 5829 5828 5826 5825 5823
5850 5850 5851 5851 5851 5851 5851 5852 5852 5852 5852 5852 5852 5851 5851 5851 5850 5850 5849 5848 5848 5847 5846 5844 5843 5842 5841 5840 5839 5838 5836 5835 5834 5832 5831 5830 5829 5827 5826 5824 5823 5821 5819
5848 5849 5849 5849 5850 5850 5850 5850 5850 5850 5850 5850 5850 5850 5850 5849 5849 5848 5848 5847 5846 5845 5844 5842 5841 5840 5839 5838 5837 5835 5834 5833 5831 5830 5828 5827 5825 5824 5822 5821 5819 5817 5815
5847 5847 5847 5847 5848 5848 5848 5848 5849 5848 5848 5848 5848 5848 5848 5848 5847 5847 5846 5845 5844 5843 5842 5840 5839 5838 5837 5835 5834 5833 5831 5830 5828 5827 5825 5823 5822 5820 5818 5817 5814 5812 5810
5845 5845 5845 5845 5845 5846 5846 5846 5846 5846 5846 5846 5846 5846 5846 5846 5845 5845 5844 5843 5842 5841 5839 5838 5837 5835 5834 5833 5831 5830 5828 5826 5825 5823 5821 5819 5817 5816 5814 5812 5810 5807 5805
5842 5843 5843 5843 5843 5843 5844 5844 5844 5844 5844 5844 5844 5844 5844 5843 5843 5842 5841 5840 5839 5838 5837 5835 5834 5832 5831 5830 5828 5827 5825 5823 5821 5820 5817 5815 5813 5811 5809 5807 5804 5802 5800
5839 5840 5840 5840 5841 5841 5841 5841 5841 5841 5841 5841 5841 5841 5841 5840 5840 5839 5838 5837 5836 5835 5834 5832 5831 5829 5828 5826 5824 5823 5821 5819 5817 5815 5813 5811 5809 5806 5804 5801 5799 5796 5793
5836 5837 5837 5837 5838 5838 5838 5838 5838 5838 5838 5838 5838 5838 5838 5837 5836 5835 5835 5834 5832 5831 5830 5828 5827 5825 5823 5822 5820 5818 5817 5815 5812 5810 5808 5806 5803 5801 5798 5795 5792 5789 5786
5833 5833 5834 5834 5835 5835 5835 5835 5835 5835 5835 5835 5835 5834 5834 5834 5833 5832 5831 5830 5829 5827 5825 5824 5822 5821 5819 5817 5815 5814 5812 5810 5807 5805 5803 5800 5798 5795 5791 5788 5785 5782 5779
5829 5830 5830 5831 5831 5831 5831 5831 5831 5831 5831 5831 5831 5831 5830 5830 5829 5828 5827 5825 5824 5823 5821 5819 5818 5816 5814 5812 5810 5808 5806 5804 5801 5799 5796 5794 5791 5788 5785 5781 5777 5774 5770